Location: Newark
(47.5833°N, 8.1500°E)
Time: 07:30:04
(UTC+00:00)

Tiros 1 despin weight - Pass Details

Date: 04 November 2020
Orbit: 593 x 642 km, 48.2° (Epoch: 28 November)

Event Time Altitude Azimuth Distance (km) Brightness Sun altitude
Rises 22:56:31 0° 262° (W) 2,884 - -58.0°
Reaches altitude 10° 22:58:50 10° 262° (W) 1,971 - -58.1°
Maximum altitude 23:03:22 87° 353° (N) 613 - -58.1°
Drops below altitude 10° 23:07:51 10° 82° (E) 1,944 - -58.2°
Sets 23:10:07 0° 83° (E) 2,841 - -58.2°
